Regional Weather Roundup
Issued by NWS

Home | Current Version | Previous Version | Text Only | Print | Product List | Glossary On
Versions: 1 2 3 4 5 6 7 8 9 10 11 12 13 14 15 16 17 18 19 20 21 22 23 24 25 26 27 28 29 30 31 32 33 34 35 36 37 38 39 40 41 42 43 44 45 46 47 48 49 50
000
ASUS43 KBIS 190210
RWRND

NORTH DAKOTA REGIONAL WEATHER ROUNDUP
NATIONAL WEATHER SERVICE BISMARCK ND
800 PM CST SUN FEB 18 2018

NOTE: "FAIR" INDICATES FEW OR NO CLOUDS BELOW 12,000 FEET WITH NO
SIGNIFICANT WEATHER AND/OR OBSTRUCTIONS TO VISIBILITY.


NDZ001>003-009>011-017-190300-
NORTHWEST NORTH DAKOTA

CITY           SKY/WX    TMP DP  RH WIND       PRES   REMARKS
WILLISTON      CLOUDY     0  -5  79 N8        30.08R WCI -14
MINOT          CLOUDY     5  -5  63 N10       30.06R WCI -10
MINOT AFB      CLOUDY     4  -6  64 N9        30.05R WCI -11
$$

NDZ018>021-031>035-040>046-190300-
SOUTHWEST NORTH DAKOTA

CITY           SKY/WX    TMP DP  RH WIND       PRES   REMARKS
BISMARCK       CLOUDY    10   2  69 N12       30.04R WCI  -5
DICKINSON      CLOUDY     5  -2  72 N12       29.97R WCI -11
GARRISON         N/A      5   0  79 N10       30.04R WCI -10
HETTINGER ARPT LGT SNOW   4  -1  80 N13G23    29.95R WCI -13
$$

NDZ004>008-012>016-024-026-027-054-190300-
NORTHEAST NORTH DAKOTA

CITY           SKY/WX    TMP DP  RH WIND       PRES   REMARKS
GRAND FORKS    CLOUDY     9   3  77 N18       30.03R WCI -10
GRND FRKS AFB  FAIR       9   1  70 N16       30.03R WCI  -9
DEVILS LAKE    FAIR       5  -1  76 N13       30.03R WCI -12
$$

NDZ022-023-025-028>030-036>039-047>053-190300-
SOUTHEAST NORTH DAKOTA

CITY           SKY/WX    TMP DP  RH WIND       PRES   REMARKS
FARGO          FAIR      11   7  84 N23       29.94R WCI  -9
JAMESTOWN      CLOUDY     9   3  77 N21       29.95S WCI -11
$$





USA.gov is the U.S. government's official web portal to all federal, state and local government web resources and services.